Time,TemperatureF,DewpointF,PressureIn,WindDirection,WindDirectionDegrees,WindSpeedMPH,WindSpeedGustMPH,Humidity,HourlyPrecipIn,Conditions,Clouds,dailyrainin,SolarRadiationWatts/m^2,SoftwareType,DateUTC
2013-01-01 00:04:00,24.2,21.4,29.65,WNW,292,0.0,1.0,89,0.00,,,0.00,0,Wunderground v.1.15,2013-01-01 05:04:00,
2013-01-01 00:34:00,25.4,22.9,29.63,WNW,292,1.0,1.0,90,0.00,,,0.00,0,Wunderground v.1.15,2013-01-01 05:34:00,
2013-01-01 01:04:00,26.2,23.4,29.61,WNW,293,1.0,1.0,89,0.00,,,0.00,0,Wunderground v.1.15,2013-01-01 06:04:00,
2013-01-01 01:34:00,26.7,23.9,29.61,WNW,293,3.0,3.0,89,0.00,,,0.00,0,Wunderground v.1.15,2013-01-01 06:34:00,
2013-01-01 02:04:00,26.6,23.8,29.61,WNW,303,2.0,2.0,89,0.00,,,0.00,0,Wunderground v.1.15,2013-01-01 07:04:00,
2013-01-01 02:34:00,27.4,24.3,29.60,NW,305,3.0,4.0,88,0.00,,,0.00,0,Wunderground v.1.15,2013-01-01 07:34:00,
2013-01-01 03:04:00,28.5,24.3,29.60,NW,313,5.0,6.0,84,0.00,,,0.00,0,Wunderground v.1.15,2013-01-01 08:04:00,
2013-01-01 03:33:00,29.2,24.7,29.59,NNW,336,4.0,6.0,83,0.00,,,0.00,0,Wunderground v.1.15,2013-01-01 08:33:00,
2013-01-01 04:04:00,30.1,25.3,29.58,NW,311,6.0,7.0,82,0.00,,,0.00,0,Wunderground v.1.15,2013-01-01 09:04:00,
2013-01-01 04:34:00,30.5,25.7,29.57,WNW,295,5.0,5.0,82,0.00,,,0.00,0,Wunderground v.1.15,2013-01-01 09:34:00,
2013-01-01 05:04:00,30.2,25.4,29.57,NW,326,5.0,8.0,82,0.00,,,0.00,0,Wunderground v.1.15,2013-01-01 10:04:00,
2013-01-01 05:34:00,29.9,25.4,29.58,WNW,291,8.0,11.0,83,0.00,,,0.00,0,Wunderground v.1.15,2013-01-01 10:34:00,
2013-01-01 06:04:00,30.1,25.6,29.59,NW,319,6.0,7.0,83,0.00,,,0.00,0,Wunderground v.1.15,2013-01-01 11:04:00,
2013-01-01 06:34:00,30.5,26.0,29.61,WNW,303,9.0,10.0,83,0.00,,,0.00,0,Wunderground v.1.15,2013-01-01 11:34:00,
2013-01-01 07:04:00,30.2,26.5,29.61,NNW,339,6.0,6.0,86,0.00,,,0.00,0,Wunderground v.1.15,2013-01-01 12:04:00,
2013-01-01 07:34:00,29.8,25.8,29.61,NW,323,3.0,3.0,85,0.00,,,0.00,18,Wunderground v.1.15,2013-01-01 12:34:00,
2013-01-01 08:04:00,30.7,25.9,29.61,WNW,297,5.0,5.0,82,0.00,,,0.00,69,Wunderground v.1.15,2013-01-01 13:04:00,
2013-01-01 08:34:00,31.8,22.8,29.62,NNW,330,11.0,11.0,69,0.00,,,0.00,153,Wunderground v.1.15,2013-01-01 13:34:00,
2013-01-01 09:04:00,32.2,19.5,29.64,NW,318,8.0,8.0,59,0.00,,,0.00,237,Wunderground v.1.15,2013-01-01 14:04:00,
2013-01-01 09:34:00,31.9,16.7,29.64,WNW,302,10.0,10.0,53,0.00,,,0.00,306,Wunderground v.1.15,2013-01-01 14:34:00,
2013-01-01 10:04:00,30.4,14.9,29.65,North,356,15.0,15.0,52,0.00,,,0.00,353,Wunderground v.1.15,2013-01-01 15:04:00,
2013-01-01 10:34:00,29.9,14.4,29.65,North,349,13.0,13.0,52,0.00,,,0.00,383,Wunderground v.1.15,2013-01-01 15:34:00,
2013-01-01 11:04:00,29.8,12.9,29.65,North,10,12.0,12.0,49,0.00,,,0.00,399,Wunderground v.1.15,2013-01-01 16:04:00,
2013-01-01 11:34:00,29.7,12.4,29.65,NNE,13,14.0,14.0,48,0.00,,,0.00,404,Wunderground v.1.15,2013-01-01 16:34:00,
2013-01-01 12:04:00,28.7,9.5,29.63,NW,326,12.0,12.0,44,0.00,,,0.00,397,Wunderground v.1.15,2013-01-01 17:04:00,
2013-01-01 12:34:00,28.1,7.9,29.65,NNW,347,11.0,12.0,42,0.00,,,0.00,373,Wunderground v.1.15,2013-01-01 17:34:00,
2013-01-01 13:04:00,27.5,7.9,29.65,NW,308,11.0,14.0,43,0.00,,,0.00,338,Wunderground v.1.15,2013-01-01 18:04:00,
2013-01-01 13:34:00,27.3,8.2,29.65,NNW,332,10.0,10.0,44,0.00,,,0.00,241,Wunderground v.1.15,2013-01-01 18:34:00,
2013-01-01 14:04:00,26.7,7.7,29.66,NNE,12,9.0,9.0,44,0.00,,,0.00,32,Wunderground v.1.15,2013-01-01 19:04:00,
2013-01-01 14:34:00,25.9,6.9,29.66,WSW,253,10.0,10.0,44,0.00,,,0.00,28,Wunderground v.1.15,2013-01-01 19:34:00,
2013-01-01 15:04:00,25.0,6.6,29.67,North,350,10.0,11.0,45,0.00,,,0.00,25,Wunderground v.1.15,2013-01-01 20:04:00,
2013-01-01 15:34:00,23.9,6.1,29.68,North,354,9.0,9.0,46,0.00,,,0.00,18,Wunderground v.1.15,2013-01-01 20:34:00,
2013-01-01 16:04:00,22.8,6.0,29.69,North,2,8.0,8.0,48,0.00,,,0.00,5,Wunderground v.1.15,2013-01-01 21:04:00,
2013-01-01 16:34:00,21.6,6.2,29.70,North,355,7.0,7.0,51,0.00,,,0.00,0,Wunderground v.1.15,2013-01-01 21:34:00,
2013-01-01 17:04:00,20.9,5.6,29.70,NNE,16,8.0,8.0,51,0.00,,,0.00,0,Wunderground v.1.15,2013-01-01 22:04:00,
2013-01-01 17:34:00,20.2,4.5,29.72,NNW,336,10.0,10.0,50,0.00,,,0.00,0,Wunderground v.1.15,2013-01-01 22:34:00,
2013-01-01 18:04:00,19.1,4.8,29.74,NNW,344,6.0,7.0,53,0.00,,,0.00,0,Wunderground v.1.15,2013-01-01 23:04:00,
2013-01-01 18:34:00,18.5,4.2,29.75,NW,315,7.0,7.0,53,0.00,,,0.00,0,Wunderground v.1.15,2013-01-01 23:34:00,
2013-01-01 19:04:00,17.7,3.8,29.76,NNW,347,4.0,5.0,54,0.00,,,0.00,0,Wunderground v.1.15,2013-01-02 00:04:00,
2013-01-01 19:34:00,16.7,3.7,29.78,NW,314,6.0,6.0,56,0.00,,,0.00,0,Wunderground v.1.15,2013-01-02 00:34:00,
2013-01-01 20:04:00,15.8,3.6,29.79,NW,314,6.0,11.0,58,0.00,,,0.00,0,Wunderground v.1.15,2013-01-02 01:04:00,
2013-01-01 20:34:00,14.9,3.5,29.79,NNW,340,6.0,6.0,60,0.00,,,0.00,0,Wunderground v.1.15,2013-01-02 01:34:00,
2013-01-01 21:04:00,14.1,4.1,29.80,NW,324,6.0,6.0,64,0.00,,,0.00,0,Wunderground v.1.15,2013-01-02 02:04:00,
2013-01-01 21:34:00,13.5,3.6,29.80,NNW,347,5.0,7.0,64,0.00,,,0.00,0,Wunderground v.1.15,2013-01-02 02:34:00,
2013-01-01 22:04:00,13.2,2.9,29.80,WNW,291,6.0,9.0,63,0.00,,,0.00,0,Wunderground v.1.15,2013-01-02 03:04:00,
2013-01-01 22:34:00,12.6,2.7,29.80,NNW,333,5.0,6.0,64,0.00,,,0.00,0,Wunderground v.1.15,2013-01-02 03:34:00,
2013-01-01 23:04:00,-999.9,-99.9,29.81,North,32767,-999.0,0.0,255,-99.99,,,0.00,,Wunderground v.1.15,2013-01-02 04:04:00,
2013-01-01 23:34:00,-999.9,-99.9,29.82,North,32767,-999.0,0.0,255,-99.99,,,0.00,,Wunderground v.1.15,2013-01-02 04:34:00,